Location: Unspecified
(50.7693°N, 0.0000°E)
Time: 22:14:35
(UTC+00:00)

SR - Pass Details

Date: 04 July 2019
Orbit: 575 x 881 km, 66.7° (Epoch: 12 October)

Event Time Altitude Azimuth Distance (km) Brightness Sun altitude
Rises 06:53:23 0° 323° (NW) 2,949 ? 25.1°
Reaches altitude 10° 06:56:11 10° 341° (NNW) 2,090 ? 25.6°
Maximum altitude 06:59:40 20° 28° (NNE) 1,601 ? 26.1°
Drops below altitude 10° 07:03:19 10° 75° (ENE) 2,229 ? 26.7°
Sets 07:06:25 0° 92° (E) 3,215 ? 27.2°
